owner,sensor,date,latitude,longitude,vertical_datum,sea_water_speed,direction_of_sea_water_velocity,upward_sea_water_velocity,qcFlag
Anadarko,ioos:station:wmo:42373:1,2023-02-01T00:02:00Z,27.3539,-94.6254,79.0,12.0,341.6,-9999.0,'111111111,111111111,999999991'
Anadarko,ioos:station:wmo:42373:1,2023-02-01T00:22:00Z,27.3539,-94.6254,79.0,9.6,350.4,-9999.0,'111111111,111111111,999999991'
Anadarko,ioos:station:wmo:42373:1,2023-02-01T00:42:00Z,27.3539,-94.6254,79.0,9.1,350.5,-9999.0,'111111111,111111111,999999991'
Anadarko,ioos:station:wmo:42373:1,2023-02-01T01:02:00Z,27.3539,-94.6254,79.0,9.3,337.3,-9999.0,'111111111,111111111,999999991'
Anadarko,ioos:station:wmo:42373:1,2023-02-01T01:22:00Z,27.3539,-94.6254,79.0,9.9,342.3,-9999.0,'111111111,111111111,999999991'
Anadarko,ioos:station:wmo:42373:1,2023-02-01T01:42:00Z,27.3539,-94.6254,79.0,9.4,344.6,-9999.0,'111111111,111111111,999999991'
Anadarko,ioos:station:wmo:42373:1,2023-02-01T02:02:00Z,27.3539,-94.6254,79.0,9.4,343.9,-9999.0,'111111111,111111111,999999991'
Anadarko,ioos:station:wmo:42373:1,2023-02-01T02:22:00Z,27.3539,-94.6254,79.0,9.6,349.2,-9999.0,'111111111,111111111,999999991'
Anadarko,ioos:station:wmo:42373:1,2023-02-01T02:42:00Z,27.3539,-94.6254,79.0,9.5,352.1,-9999.0,'111111111,111111111,999999991'
Anadarko,ioos:station:wmo:42373:1,2023-02-01T03:02:00Z,27.3539,-94.6254,79.0,8.6,0.0,-9999.0,'111111111,111441111,999999991'
Anadarko,ioos:station:wmo:42373:1,2023-02-01T03:22:00Z,27.3539,-94.6254,79.0,8.4,356.6,-9999.0,'111111111,111111111,999999991'
Anadarko,ioos:station:wmo:42373:1,2023-02-01T03:42:00Z,27.3539,-94.6254,79.0,7.9,355.7,-9999.0,'111111111,111111111,999999991'
Anadarko,ioos:station:wmo:42373:1,2023-02-01T04:02:00Z,27.3539,-94.6254,79.0,6.6,358.3,-9999.0,'111111111,111111111,999999991'
Anadarko,ioos:station:wmo:42373:1,2023-02-01T04:22:00Z,27.3539,-94.6254,79.0,7.1,13.1,-9999.0,'111111111,111111111,999999991'
Anadarko,ioos:station:wmo:42373:1,2023-02-01T04:42:00Z,27.3539,-94.6254,79.0,7.3,354.5,-9999.0,'111111111,111111111,999999991'
Anadarko,ioos:station:wmo:42373:1,2023-02-01T05:02:00Z,27.3539,-94.6254,79.0,7.1,357.6,-9999.0,'111111111,111111111,999999991'
Anadarko,ioos:station:wmo:42373:1,2023-02-01T05:22:00Z,27.3539,-94.6254,79.0,6.1,4.7,-9999.0,'111111111,111111111,999999991'
Anadarko,ioos:station:wmo:42373:1,2023-02-01T05:42:00Z,27.3539,-94.6254,79.0,5.2,352.3,-9999.0,'111111111,111111111,999999991'
Anadarko,ioos:station:wmo:42373:1,2023-02-01T06:02:00Z,27.3539,-94.6254,79.0,4.6,349.9,-9999.0,'111111111,111111111,999999991'
Anadarko,ioos:station:wmo:42373:1,2023-02-01T06:22:00Z,27.3539,-94.6254,79.0,6.3,334.7,-9999.0,'111111111,111111111,999999991'
Anadarko,ioos:station:wmo:42373:1,2023-02-01T06:42:00Z,27.3539,-94.6254,79.0,8.5,314.0,-9999.0,'111111111,111111111,999999991'
Anadarko,ioos:station:wmo:42373:1,2023-02-01T07:02:00Z,27.3539,-94.6254,79.0,8.6,329.8,-9999.0,'111111111,111111111,999999991'
Anadarko,ioos:station:wmo:42373:1,2023-02-01T07:22:00Z,27.3539,-94.6254,79.0,9.6,326.5,-9999.0,'111111111,111111111,999999991'
Anadarko,ioos:station:wmo:42373:1,2023-02-01T07:42:00Z,27.3539,-94.6254,79.0,11.3,325.0,-9999.0,'111111111,111111111,999999991'
Anadarko,ioos:station:wmo:42373:1,2023-02-01T08:02:00Z,27.3539,-94.6254,79.0,9.4,329.3,-9999.0,'111111111,111111111,999999991'
Anadarko,ioos:station:wmo:42373:1,2023-02-01T08:22:00Z,27.3539,-94.6254,79.0,10.9,328.9,-9999.0,'111111111,111111111,999999991'
Anadarko,ioos:station:wmo:42373:1,2023-02-01T08:42:00Z,27.3539,-94.6254,79.0,10.4,331.2,-9999.0,'111111111,111111111,999999991'
Anadarko,ioos:station:wmo:42373:1,2023-02-01T09:02:00Z,27.3539,-94.6254,79.0,10.8,337.7,-9999.0,'111111111,111111111,999999991'
Anadarko,ioos:station:wmo:42373:1,2023-02-01T09:22:00Z,27.3539,-94.6254,79.0,13.3,340.8,-9999.0,'111111111,111111111,999999991'
Anadarko,ioos:station:wmo:42373:1,2023-02-01T09:42:00Z,27.3539,-94.6254,79.0,10.2,331.4,-9999.0,'111111111,111111111,999999991'
Anadarko,ioos:station:wmo:42373:1,2023-02-01T10:02:00Z,27.3539,-94.6254,79.0,10.3,336.4,-9999.0,'111111111,111111111,999999991'
Anadarko,ioos:station:wmo:42373:1,2023-02-01T10:22:00Z,27.3539,-94.6254,79.0,9.8,338.4,-9999.0,'111111111,111111111,999999991'
Anadarko,ioos:station:wmo:42373:1,2023-02-01T10:42:00Z,27.3539,-94.6254,79.0,9.1,334.0,-9999.0,'111111111,111111111,999999991'
Anadarko,ioos:station:wmo:42373:1,2023-02-01T11:02:00Z,27.3539,-94.6254,79.0,9.4,335.6,-9999.0,'111111111,111111111,999999991'
Anadarko,ioos:station:wmo:42373:1,2023-02-01T11:22:00Z,27.3539,-94.6254,79.0,10.1,337.2,-9999.0,'111111111,111111111,999999991'
Anadarko,ioos:station:wmo:42373:1,2023-02-01T11:42:00Z,27.3539,-94.6254,79.0,8.4,334.7,-9999.0,'111111111,111111111,999999991'
Anadarko,ioos:station:wmo:42373:1,2023-02-01T12:02:00Z,27.3539,-94.6254,79.0,14.7,328.9,-9999.0,'111111111,111111111,999999991'
Anadarko,ioos:station:wmo:42373:1,2023-02-01T12:22:00Z,27.3539,-94.6254,79.0,14.5,326.5,-9999.0,'111111111,111111111,999999991'
Anadarko,ioos:station:wmo:42373:1,2023-02-01T12:42:00Z,27.3539,-94.6254,79.0,12.6,331.6,-9999.0,'111111111,111111111,999999991'
Anadarko,ioos:station:wmo:42373:1,2023-02-01T13:02:00Z,27.3539,-94.6254,79.0,12.8,327.8,-9999.0,'111111111,111111111,999999991'
Anadarko,ioos:station:wmo:42373:1,2023-02-01T13:22:00Z,27.3539,-94.6254,79.0,15.1,326.6,-9999.0,'111111111,111111111,999999991'
Anadarko,ioos:station:wmo:42373:1,2023-02-01T13:42:00Z,27.3539,-94.6254,79.0,10.5,332.7,-9999.0,'111111111,111111111,999999991'
Anadarko,ioos:station:wmo:42373:1,2023-02-01T14:02:00Z,27.3539,-94.6254,79.0,9.6,329.4,-9999.0,'111111111,111111111,999999991'
Anadarko,ioos:station:wmo:42373:1,2023-02-01T14:22:00Z,27.3539,-94.6254,79.0,11.6,323.0,-9999.0,'111111111,111111111,999999991'
Anadarko,ioos:station:wmo:42373:1,2023-02-01T14:42:00Z,27.3539,-94.6254,79.0,15.2,321.9,-9999.0,'111111111,111111111,999999991'
Anadarko,ioos:station:wmo:42373:1,2023-02-01T15:02:00Z,27.3539,-94.6254,79.0,14.1,325.1,-9999.0,'111111111,111111111,999999991'
Anadarko,ioos:station:wmo:42373:1,2023-02-01T15:22:00Z,27.3539,-94.6254,79.0,13.4,320.5,-9999.0,'111111111,111111111,999999991'
Anadarko,ioos:station:wmo:42373:1,2023-02-01T15:42:00Z,27.3539,-94.6254,79.0,12.2,327.7,-9999.0,'111111111,111111111,999999991'
Anadarko,ioos:station:wmo:42373:1,2023-02-01T16:02:00Z,27.3539,-94.6254,79.0,9.3,334.0,-9999.0,'111111111,111111111,999999991'
Anadarko,ioos:station:wmo:42373:1,2023-02-01T16:22:00Z,27.3539,-94.6254,79.0,12.4,325.5,-9999.0,'111111111,111111111,999999991'
Anadarko,ioos:station:wmo:42373:1,2023-02-01T16:42:00Z,27.3539,-94.6254,79.0,11.8,319.5,-9999.0,'111111111,111111111,999999991'
Anadarko,ioos:station:wmo:42373:1,2023-02-01T17:02:00Z,27.3539,-94.6254,79.0,13.7,323.9,-9999.0,'111111111,111111111,999999991'
Anadarko,ioos:station:wmo:42373:1,2023-02-01T17:22:00Z,27.3539,-94.6254,79.0,10.8,327.5,-9999.0,'111111111,111111111,999999991'
Anadarko,ioos:station:wmo:42373:1,2023-02-01T17:42:00Z,27.3539,-94.6254,79.0,12.0,341.6,-9999.0,'111111111,111111111,999999991'
Anadarko,ioos:station:wmo:42373:1,2023-02-01T18:02:00Z,27.3539,-94.6254,79.0,15.6,331.3,-9999.0,'111111111,111111111,999999991'
Anadarko,ioos:station:wmo:42373:1,2023-02-01T18:22:00Z,27.3539,-94.6254,79.0,16.1,336.6,-9999.0,'111111111,111111111,999999991'
Anadarko,ioos:station:wmo:42373:1,2023-02-01T18:42:00Z,27.3539,-94.6254,79.0,16.5,337.9,-9999.0,'111111111,111111111,999999991'
Anadarko,ioos:station:wmo:42373:1,2023-02-01T19:02:00Z,27.3539,-94.6254,79.0,13.4,351.9,-9999.0,'111111111,111111111,999999991'
Anadarko,ioos:station:wmo:42373:1,2023-02-01T19:22:00Z,27.3539,-94.6254,79.0,12.8,7.2,-9999.0,'111111111,111111111,999999991'
Anadarko,ioos:station:wmo:42373:1,2023-02-01T19:42:00Z,27.3539,-94.6254,79.0,12.3,358.6,-9999.0,'111111111,111111111,999999991'
Anadarko,ioos:station:wmo:42373:1,2023-02-01T20:02:00Z,27.3539,-94.6254,79.0,11.1,2.6,-9999.0,'111111111,111111111,999999991'
Anadarko,ioos:station:wmo:42373:1,2023-02-01T20:22:00Z,27.3539,-94.6254,79.0,13.7,14.9,-9999.0,'111111111,111111111,999999991'
Anadarko,ioos:station:wmo:42373:1,2023-02-01T20:42:00Z,27.3539,-94.6254,79.0,13.9,12.0,-9999.0,'111111111,111111111,999999991'
Anadarko,ioos:station:wmo:42373:1,2023-02-01T21:02:00Z,27.3539,-94.6254,79.0,16.4,3.1,-9999.0,'111111111,111111111,999999991'
Anadarko,ioos:station:wmo:42373:1,2023-02-01T21:22:00Z,27.3539,-94.6254,79.0,14.4,0.4,-9999.0,'111111111,111111111,999999991'
Anadarko,ioos:station:wmo:42373:1,2023-02-01T21:42:00Z,27.3539,-94.6254,79.0,14.9,4.2,-9999.0,'111111111,111111111,999999991'
Anadarko,ioos:station:wmo:42373:1,2023-02-01T22:02:00Z,27.3539,-94.6254,79.0,13.4,13.8,-9999.0,'111111111,111111111,999999991'
Anadarko,ioos:station:wmo:42373:1,2023-02-01T22:22:00Z,27.3539,-94.6254,79.0,14.9,7.7,-9999.0,'111111111,111111111,999999991'
Anadarko,ioos:station:wmo:42373:1,2023-02-01T22:42:00Z,27.3539,-94.6254,79.0,17.5,3.3,-9999.0,'111111111,111111111,999999991'
Anadarko,ioos:station:wmo:42373:1,2023-02-01T23:02:00Z,27.3539,-94.6254,79.0,19.5,359.7,-9999.0,'111111111,111441111,999999991'
Anadarko,ioos:station:wmo:42373:1,2023-02-01T23:22:00Z,27.3539,-94.6254,79.0,18.5,8.4,-9999.0,'111111111,111111111,999999991'
Anadarko,ioos:station:wmo:42373:1,2023-02-01T23:42:00Z,27.3539,-94.6254,79.0,16.3,7.0,-9999.0,'111111111,111111111,999999991'
Anadarko,ioos:station:wmo:42373:1,2023-02-02T00:02:00Z,27.3539,-94.6254,79.0,15.0,6.9,-9999.0,'111111111,111111111,999999991'
Anadarko,ioos:station:wmo:42373:1,2023-02-02T00:22:00Z,27.3539,-94.6254,79.0,14.5,0.0,-9999.0,'111111111,111441111,999999991'
Anadarko,ioos:station:wmo:42373:1,2023-02-02T00:42:00Z,27.3539,-94.6254,79.0,14.2,0.8,-9999.0,'111111111,111111111,999999991'
Anadarko,ioos:station:wmo:42373:1,2023-02-02T01:02:00Z,27.3539,-94.6254,79.0,12.4,348.9,-9999.0,'111111111,111111111,999999991'
Anadarko,ioos:station:wmo:42373:1,2023-02-02T01:22:00Z,27.3539,-94.6254,79.0,11.8,348.3,-9999.0,'111111111,111111111,999999991'
Anadarko,ioos:station:wmo:42373:1,2023-02-02T01:42:00Z,27.3539,-94.6254,79.0,10.5,348.5,-9999.0,'111111111,111111111,999999991'
Anadarko,ioos:station:wmo:42373:1,2023-02-02T02:02:00Z,27.3539,-94.6254,79.0,9.1,347.9,-9999.0,'111111111,111111111,999999991'
Anadarko,ioos:station:wmo:42373:1,2023-02-02T02:22:00Z,27.3539,-94.6254,79.0,12.8,351.9,-9999.0,'111111111,111111111,999999991'
Anadarko,ioos:station:wmo:42373:1,2023-02-02T02:42:00Z,27.3539,-94.6254,79.0,14.0,349.7,-9999.0,'111111111,111111111,999999991'
Anadarko,ioos:station:wmo:42373:1,2023-02-02T03:02:00Z,27.3539,-94.6254,79.0,15.6,347.4,-9999.0,'111111111,111111111,999999991'
Anadarko,ioos:station:wmo:42373:1,2023-02-02T03:22:00Z,27.3539,-94.6254,79.0,12.9,343.4,-9999.0,'111111111,111111111,999999991'
Anadarko,ioos:station:wmo:42373:1,2023-02-02T03:42:00Z,27.3539,-94.6254,79.0,11.6,350.5,-9999.0,'111111111,111111111,999999991'
Anadarko,ioos:station:wmo:42373:1,2023-02-02T04:02:00Z,27.3539,-94.6254,79.0,12.1,349.5,-9999.0,'111111111,111111111,999999991'
Anadarko,ioos:station:wmo:42373:1,2023-02-02T04:22:00Z,27.3539,-94.6254,79.0,9.4,342.7,-9999.0,'111111111,111111111,999999991'
Anadarko,ioos:station:wmo:42373:1,2023-02-02T04:42:00Z,27.3539,-94.6254,79.0,11.7,343.1,-9999.0,'111111111,111111111,999999991'
Anadarko,ioos:station:wmo:42373:1,2023-02-02T05:02:00Z,27.3539,-94.6254,79.0,13.7,343.0,-9999.0,'111111111,111111111,999999991'
Anadarko,ioos:station:wmo:42373:1,2023-02-02T05:22:00Z,27.3539,-94.6254,79.0,13.4,340.3,-9999.0,'111111111,111111111,999999991'
Anadarko,ioos:station:wmo:42373:1,2023-02-02T05:42:00Z,27.3539,-94.6254,79.0,11.8,344.3,-9999.0,'111111111,111111111,999999991'
Anadarko,ioos:station:wmo:42373:1,2023-02-02T06:02:00Z,27.3539,-94.6254,79.0,7.6,353.2,-9999.0,'111111111,111111111,999999991'
Anadarko,ioos:station:wmo:42373:1,2023-02-02T06:22:00Z,27.3539,-94.6254,79.0,6.6,353.9,-9999.0,'111111111,111111111,999999991'
Anadarko,ioos:station:wmo:42373:1,2023-02-02T06:42:00Z,27.3539,-94.6254,79.0,5.6,0.0,-9999.0,'111111111,111441111,999999991'
Anadarko,ioos:station:wmo:42373:1,2023-02-02T07:02:00Z,27.3539,-94.6254,79.0,5.3,352.5,-9999.0,'111111111,111111111,999999991'
Anadarko,ioos:station:wmo:42373:1,2023-02-02T07:22:00Z,27.3539,-94.6254,79.0,6.4,352.8,-9999.0,'111111111,111111111,999999991'
Anadarko,ioos:station:wmo:42373:1,2023-02-02T07:42:00Z,27.3539,-94.6254,79.0,4.8,340.4,-9999.0,'111111111,111111111,999999991'
Anadarko,ioos:station:wmo:42373:1,2023-02-02T08:02:00Z,27.3539,-94.6254,79.0,6.3,344.4,-9999.0,'111111111,111111111,999999991'
Anadarko,ioos:station:wmo:42373:1,2023-02-02T08:22:00Z,27.3539,-94.6254,79.0,8.1,334.4,-9999.0,'111111111,111111111,999999991'
Anadarko,ioos:station:wmo:42373:1,2023-02-02T08:42:00Z,27.3539,-94.6254,79.0,6.4,339.0,-9999.0,'111111111,111111111,999999991'
Anadarko,ioos:station:wmo:42373:1,2023-02-02T09:02:00Z,27.3539,-94.6254,79.0,7.3,342.6,-9999.0,'111111111,111111111,999999991'
Anadarko,ioos:station:wmo:42373:1,2023-02-02T09:22:00Z,27.3539,-94.6254,79.0,8.3,330.3,-9999.0,'111111111,111111111,999999991'
Anadarko,ioos:station:wmo:42373:1,2023-02-02T09:42:00Z,27.3539,-94.6254,79.0,9.5,327.5,-9999.0,'111111111,111111111,999999991'
Anadarko,ioos:station:wmo:42373:1,2023-02-02T10:02:00Z,27.3539,-94.6254,79.0,9.8,330.0,-9999.0,'111111111,111111111,999999991'
Anadarko,ioos:station:wmo:42373:1,2023-02-02T10:22:00Z,27.3539,-94.6254,79.0,10.5,330.3,-9999.0,'111111111,111111111,999999991'
Anadarko,ioos:station:wmo:42373:1,2023-02-02T10:42:00Z,27.3539,-94.6254,79.0,12.2,326.0,-9999.0,'111111111,111111111,999999991'
Anadarko,ioos:station:wmo:42373:1,2023-02-02T11:02:00Z,27.3539,-94.6254,79.0,12.6,329.0,-9999.0,'111111111,111111111,999999991'
Anadarko,ioos:station:wmo:42373:1,2023-02-02T11:22:00Z,27.3539,-94.6254,79.0,10.5,326.3,-9999.0,'111111111,111111111,999999991'
Anadarko,ioos:station:wmo:42373:1,2023-02-02T11:42:00Z,27.3539,-94.6254,79.0,13.3,328.8,-9999.0,'111111111,111111111,999999991'
Anadarko,ioos:station:wmo:42373:1,2023-02-02T12:02:00Z,27.3539,-94.6254,79.0,12.9,333.2,-9999.0,'111111111,111111111,999999991'
Anadarko,ioos:station:wmo:42373:1,2023-02-02T12:22:00Z,27.3539,-94.6254,79.0,15.4,339.4,-9999.0,'111111111,111111111,999999991'
Anadarko,ioos:station:wmo:42373:1,2023-02-02T12:42:00Z,27.3539,-94.6254,79.0,18.0,344.5,-9999.0,'111111111,111111111,999999991'
Anadarko,ioos:station:wmo:42373:1,2023-02-02T13:02:00Z,27.3539,-94.6254,79.0,19.1,346.4,-9999.0,'111111111,111111111,999999991'
Anadarko,ioos:station:wmo:42373:1,2023-02-02T13:22:00Z,27.3539,-94.6254,79.0,22.1,347.7,-9999.0,'111111111,111111111,999999991'
Anadarko,ioos:station:wmo:42373:1,2023-02-02T13:42:00Z,27.3539,-94.6254,79.0,22.0,343.1,-9999.0,'111111111,111111111,999999991'
Anadarko,ioos:station:wmo:42373:1,2023-02-02T14:02:00Z,27.3539,-94.6254,79.0,25.6,339.7,-9999.0,'111111111,111111111,999999991'
Anadarko,ioos:station:wmo:42373:1,2023-02-02T14:22:00Z,27.3539,-94.6254,79.0,29.7,341.1,-9999.0,'111111111,111111111,999999991'
Anadarko,ioos:station:wmo:42373:1,2023-02-02T14:42:00Z,27.3539,-94.6254,79.0,31.4,343.2,-9999.0,'111111111,111111111,999999991'
Anadarko,ioos:station:wmo:42373:1,2023-02-02T15:02:00Z,27.3539,-94.6254,79.0,28.8,342.4,-9999.0,'111111111,111111111,999999991'
Anadarko,ioos:station:wmo:42373:1,2023-02-02T15:22:00Z,27.3539,-94.6254,79.0,32.7,342.7,-9999.0,'111111111,111111111,999999991'
Anadarko,ioos:station:wmo:42373:1,2023-02-02T15:42:00Z,27.3539,-94.6254,79.0,33.5,341.7,-9999.0,'111111111,111111111,999999991'
Anadarko,ioos:station:wmo:42373:1,2023-02-02T16:02:00Z,27.3539,-94.6254,79.0,33.3,342.5,-9999.0,'111111111,111111111,999999991'
Anadarko,ioos:station:wmo:42373:1,2023-02-02T16:22:00Z,27.3539,-94.6254,79.0,32.4,349.3,-9999.0,'111111111,111111111,999999991'
Anadarko,ioos:station:wmo:42373:1,2023-02-02T16:42:00Z,27.3539,-94.6254,79.0,30.4,351.1,-9999.0,'111111111,111111111,999999991'
Anadarko,ioos:station:wmo:42373:1,2023-02-02T17:02:00Z,27.3539,-94.6254,79.0,27.7,351.9,-9999.0,'111111111,111111111,999999991'
Anadarko,ioos:station:wmo:42373:1,2023-02-02T17:22:00Z,27.3539,-94.6254,79.0,27.0,354.1,-9999.0,'111111111,111111111,999999991'
Anadarko,ioos:station:wmo:42373:1,2023-02-02T17:42:00Z,27.3539,-94.6254,79.0,24.2,0.9,-9999.0,'111111111,111111111,999999991'
Anadarko,ioos:station:wmo:42373:1,2023-02-02T18:02:00Z,27.3539,-94.6254,79.0,22.1,17.1,-9999.0,'111111111,111111111,999999991'
Anadarko,ioos:station:wmo:42373:1,2023-02-02T18:22:00Z,27.3539,-94.6254,79.0,21.7,24.0,-9999.0,'111111111,111111111,999999991'
Anadarko,ioos:station:wmo:42373:1,2023-02-02T18:42:00Z,27.3539,-94.6254,79.0,21.8,23.5,-9999.0,'111111111,111111111,999999991'
Anadarko,ioos:station:wmo:42373:1,2023-02-02T19:02:00Z,27.3539,-94.6254,79.0,21.2,28.5,-9999.0,'111111111,111111111,999999991'
Anadarko,ioos:station:wmo:42373:1,2023-02-02T19:22:00Z,27.3539,-94.6254,79.0,20.0,28.1,-9999.0,'111111111,111111111,999999991'
Anadarko,ioos:station:wmo:42373:1,2023-02-02T19:42:00Z,27.3539,-94.6254,79.0,19.9,38.9,-9999.0,'111111111,111111111,999999991'
Anadarko,ioos:station:wmo:42373:1,2023-02-02T20:02:00Z,27.3539,-94.6254,79.0,20.6,40.9,-9999.0,'111111111,111111111,999999991'
Anadarko,ioos:station:wmo:42373:1,2023-02-02T20:22:00Z,27.3539,-94.6254,79.0,19.5,43.3,-9999.0,'111111111,111111111,999999991'
